DW7076 Floda SE current weather conditions

sailwx.info

Wind from 303 at 2 knots gusting 7

Air temperature 18.9° C
Dewpoint 10.9° C

Last reported at 2015-Aug-01 12:46 UTC.
Time now 2015-Aug-01 13:51 UTC

Location: N 57°49' E 012°21'.
View on Google Maps.

See reports from other nearby stations

  
Tides and Currents Weather Stations Pressure Air Temp Water Temp Dewpoint Dewpoint Depression Visibility Wind Speed Wind Dir Waves Ship Positions
date/time (UTC)wind fromknots sea level pressurealtimeterstation pressurevisibilityair tempwater tempwave heightnotes
2015-Aug-01 12:46 303 2 gusting 7 18.9
2015-Aug-01 12:36 208 2 gusting 10 18.9
2015-Aug-01 12:26 132 4 gusting 10 18.9
2015-Aug-01 12:16 237 2 gusting 8 18.9
2015-Aug-01 12:06 237 3 gusting 13 18.3
2015-Aug-01 11:56 335 1 gusting 7 18.3
2015-Aug-01 11:46 189 4 gusting 10 18.3
2015-Aug-01 11:36 246 3 gusting 8 18.3
2015-Aug-01 11:26 268 1 gusting 10 17.8
2015-Aug-01 11:16 180 1 gusting 10 18.3
2015-Aug-01 11:06 250 2 gusting 10 17.8
2015-Aug-01 10:56 193 2 gusting 10 17.2
2015-Aug-01 10:46 324 1 gusting 6 17.2
2015-Aug-01 10:36 195 1 gusting 5 16.7
2015-Aug-01 10:26 159 1 gusting 7 16.7
2015-Aug-01 10:16 346 1 gusting 4 16.7
2015-Aug-01 10:06 161 16.1
2015-Aug-01 09:56 024 0 gusting 6 16.1
2015-Aug-01 09:46 311 1 gusting 8 16.7
2015-Aug-01 09:36 250 3 gusting 7 16.7
2015-Aug-01 09:26 287 1 gusting 10 16.7
2015-Aug-01 09:16 310 2 gusting 7 17.2
2015-Aug-01 09:06 221 2 gusting 10 17.2
2015-Aug-01 08:56 173 2 gusting 8 16.7
2015-Aug-01 08:46 253 2 gusting 7 17.2
2015-Aug-01 08:36 295 3 gusting 8 16.7
2015-Aug-01 08:26 251 2 gusting 8 16.1
2015-Aug-01 08:16 159 0 gusting 2 15.6
2015-Aug-01 08:06 268 2 gusting 6 15.6
2015-Aug-01 07:56 292 0 gusting 7 16.1
2015-Aug-01 07:46 182 0 gusting 7 16.7
2015-Aug-01 07:36 138 2 gusting 7 16.1
2015-Aug-01 07:26 173 1 gusting 7 15.6
2015-Aug-01 07:16 182 1 gusting 6 15.6
2015-Aug-01 07:06 168 3 gusting 7 15.0
2015-Aug-01 06:56 316 2 gusting 8 14.4
2015-Aug-01 06:46 274 2 gusting 8 13.9
2015-Aug-01 06:36 186 1 gusting 5 14.4
2015-Aug-01 06:26 232 0 gusting 4 13.3
2015-Aug-01 06:16 203 2 gusting 7 12.8
2015-Aug-01 06:06 134 2 gusting 5 12.8
2015-Aug-01 05:56 180 2 gusting 6 12.2
2015-Aug-01 05:46 165 1 gusting 6 11.7
2015-Aug-01 05:36 172 1 gusting 5 11.7
2015-Aug-01 05:26 217 1 gusting 5 11.7
2015-Aug-01 05:16 157 1 gusting 6 11.1
2015-Aug-01 05:06 202 11.1
2015-Aug-01 04:56 202 11.1
2015-Aug-01 04:46 145 0 gusting 2 11.1
2015-Aug-01 04:36 195 11.1
2015-Aug-01 04:26 214 10.6
2015-Aug-01 04:16 214 10.6
2015-Aug-01 04:06 226 10.6
2015-Aug-01 03:56 226 10.6
2015-Aug-01 03:46 242 0 gusting 2 10.6
2015-Aug-01 03:36 148 10.6
2015-Aug-01 03:26 148 10.6
2015-Aug-01 03:16 148 10.6
2015-Aug-01 03:06 148 0 gusting 1 10.0
2015-Aug-01 02:56 179 10.0
2015-Aug-01 02:46 179 10.0
2015-Aug-01 02:36 179 10.0
2015-Aug-01 02:26 179 9.4
2015-Aug-01 02:16 179 9.4
2015-Aug-01 02:06 179 9.4
2015-Aug-01 01:56 179 9.4
2015-Aug-01 01:46 179 9.4
2015-Aug-01 01:36 179 9.4
2015-Aug-01 01:26 179 9.4
2015-Aug-01 01:16 179 9.4
2015-Aug-01 01:06 179 9.4
2015-Aug-01 00:56 179 9.4
2015-Aug-01 00:46 179 9.4
2015-Aug-01 00:36 179 9.4
2015-Aug-01 00:26 179 0 gusting 2 9.4
2015-Aug-01 00:16 178 9.4
2015-Aug-01 00:06 178 10.0
2015-Jul-31 23:56 178 10.0
2015-Jul-31 23:46 178 10.0
2015-Jul-31 23:36 178 10.0
2015-Jul-31 23:26 178 10.0
2015-Jul-31 23:16 178 10.0
2015-Jul-31 23:06 178 10.0
2015-Jul-31 22:56 178 10.0
2015-Jul-31 22:46 197 10.0
2015-Jul-31 22:36 197 10.0
2015-Jul-31 22:26 197 10.0
2015-Jul-31 22:16 197 10.0
2015-Jul-31 22:06 197 10.0
2015-Jul-31 21:56 197 10.0
2015-Jul-31 21:46 197 10.6
2015-Jul-31 21:36 197 10.6
2015-Jul-31 21:26 197 10.6
2015-Jul-31 21:16 197 10.6
2015-Jul-31 21:06 197 11.1
2015-Jul-31 20:56 197 11.1
2015-Jul-31 20:46 197 11.1
2015-Jul-31 20:36 197 11.1
2015-Jul-31 20:26 197 11.7
2015-Jul-31 20:16 197 11.7
2015-Jul-31 20:06 197 12.2
2015-Jul-31 19:56 197 12.2
2015-Jul-31 19:46 197 12.8
2015-Jul-31 19:36 197 12.8
2015-Jul-31 19:26 201 13.3
2015-Jul-31 19:16 277 0 gusting 1 13.3
2015-Jul-31 19:06 258 13.9
2015-Jul-31 18:56 258 0 gusting 2 13.9
2015-Jul-31 18:46 306 14.4
2015-Jul-31 18:36 14.4
2015-Jul-31 18:26 14.4
2015-Jul-31 18:16 280 0 gusting 5 15.0
2015-Jul-31 18:06 311 0 gusting 5 15.0
2015-Jul-31 17:56 154 1 gusting 2 15.6
2015-Jul-31 17:46 314 0 gusting 4 15.6
2015-Jul-31 17:36 297 0 gusting 5 15.6
2015-Jul-31 17:26 303 1 gusting 6 16.1
2015-Jul-31 17:16 306 2 gusting 7 16.1
2015-Jul-31 17:06 294 1 gusting 6 16.1
2015-Jul-31 16:56 243 1 gusting 6 15.6
2015-Jul-31 16:46 171 0 gusting 5 15.6
2015-Jul-31 16:36 307 1 gusting 5 15.6
2015-Jul-31 16:26 219 1 gusting 6 15.6
2015-Jul-31 16:16 270 2 gusting 6 15.6
2015-Jul-31 16:06 226 1 gusting 5 15.6
2015-Jul-31 15:56 172 1 gusting 7 16.1
2015-Jul-31 15:46 269 2 gusting 6 16.1
2015-Jul-31 15:36 208 1 gusting 10 16.1
2015-Jul-31 15:26 273 1 gusting 6 16.1
2015-Jul-31 15:16 290 1 gusting 7 16.7
2015-Jul-31 15:06 278 1 gusting 5 16.7
2015-Jul-31 14:56 287 2 gusting 8 16.7
2015-Jul-31 14:46 291 1 gusting 6 16.7
2015-Jul-31 14:36 319 2 gusting 10 16.7
2015-Jul-31 14:26 296 2 gusting 6 17.2
2015-Jul-31 14:16 304 1 gusting 10 17.2
2015-Jul-31 14:06 317 2 gusting 10 16.7
2015-Jul-31 13:56 296 2 gusting 10 16.7
2015-Jul-31 13:46 315 1 gusting 6 16.7
2015-Jul-31 13:36 219 1 gusting 6 16.7
2015-Jul-31 13:26 295 2 gusting 6 16.7
2015-Jul-31 13:16 138 0 gusting 7 16.1
2015-Jul-31 13:06 128 1 gusting 8 16.1
2015-Jul-31 12:56 185 2 gusting 7 16.1
2015-Jul-31 12:46 151 1 gusting 10 16.7
2015-Jul-31 12:36 067 0 gusting 10 16.7
2015-Jul-31 12:26 182 2 gusting 6 16.7
2015-Jul-31 12:16 195 1 gusting 6 16.7
2015-Jul-31 12:06 236 1 gusting 6 16.7
2015-Jul-31 11:56 199 4 gusting 8 16.7
2015-Jul-31 11:46 108 2 gusting 10 16.7
2015-Jul-31 11:36 066 1 gusting 10 16.7
2015-Jul-31 11:26 284 4 gusting 11 16.7
2015-Jul-31 11:16 152 2 gusting 8 16.1
2015-Jul-31 11:06 254 1 gusting 8 16.1
2015-Jul-31 10:56 132 0 gusting 6 16.1
2015-Jul-31 10:46 178 3 gusting 6 16.1
2015-Jul-31 10:36 175 2 gusting 10 16.7
2015-Jul-31 10:26 171 2 gusting 6 16.7
2015-Jul-31 10:16 213 1 gusting 6 16.1
2015-Jul-31 10:06 267 1 gusting 6 15.6
2015-Jul-31 09:56 094 1 gusting 5 15.6
2015-Jul-31 09:46 191 1 gusting 7 15.6
2015-Jul-31 09:36 249 1 gusting 6 15.0
2015-Jul-31 09:26 122 1 gusting 7 15.0
2015-Jul-31 09:16 103 0 gusting 4 15.0
2015-Jul-31 09:06 163 2 gusting 10 15.0
2015-Jul-31 08:56 149 1 gusting 5 15.0
2015-Jul-31 08:46 273 2 gusting 7 14.4
2015-Jul-31 08:36 239 1 gusting 5 14.4
2015-Jul-31 08:26 121 0 gusting 5 14.4
2015-Jul-31 08:16 116 0 gusting 4 14.4
2015-Jul-31 08:06 135 0 gusting 4 14.4
2015-Jul-31 07:56 207 0 gusting 4 14.4
2015-Jul-31 07:46 151 1 gusting 6 14.4
2015-Jul-31 07:36 247 1 gusting 6 14.4
2015-Jul-31 07:26 132 1 gusting 6 13.9
2015-Jul-31 07:16 100 2 gusting 6 13.9
2015-Jul-31 07:06 139 2 gusting 6 13.9
2015-Jul-31 06:56 205 2 gusting 7 13.9
2015-Jul-31 06:46 263 1 gusting 6 13.3
2015-Jul-31 06:36 135 2 gusting 10 13.3
2015-Jul-31 06:26 189 1 gusting 6 13.3
2015-Jul-31 06:16 189 1 gusting 5 13.3
2015-Jul-31 06:06 105 0 gusting 2 13.3
2015-Jul-31 05:56 165 0 gusting 7 13.3
2015-Jul-31 05:46 190 1 gusting 4 13.3
2015-Jul-31 05:36 163 13.3
2015-Jul-31 05:26 155 0 gusting 4 12.8
2015-Jul-31 05:16 133 0 gusting 2 12.8
2015-Jul-31 05:06 094 0 gusting 2 12.8
2015-Jul-31 04:56 12.8
2015-Jul-31 04:46 170 1 gusting 5 12.8
2015-Jul-31 04:36 169 12.8
2015-Jul-31 04:26 149 12.8
2015-Jul-31 04:16 150 12.8
2015-Jul-31 04:06 135 0 gusting 2 12.8
2015-Jul-31 03:56 199 1 gusting 2 12.8
2015-Jul-31 03:46 172 0 gusting 4 12.8
2015-Jul-31 03:36 187 0 gusting 4 12.8
2015-Jul-31 03:26 191 1 gusting 7 12.8
2015-Jul-31 03:16 231 0 gusting 6 12.8
2015-Jul-31 03:06 337 1 gusting 5 13.3
2015-Jul-31 02:56 300 0 gusting 6 13.3
2015-Jul-31 02:46 297 13.3
2015-Jul-31 02:36 238 1 gusting 5 13.3
2015-Jul-31 02:26 174 0 gusting 6 13.3
2015-Jul-31 02:16 190 1 gusting 4 13.3
2015-Jul-31 02:06 098 0 gusting 2 13.3
2015-Jul-31 01:56 110 0 gusting 2 13.3
2015-Jul-31 01:46 130 0 gusting 2 12.8
2015-Jul-31 01:36 196 12.8
2015-Jul-31 01:26 101 12.8
2015-Jul-31 01:16 101 0 gusting 2 12.8
2015-Jul-31 01:06 109 12.8
2015-Jul-31 00:56 121 12.8
2015-Jul-31 00:46 169 12.8
2015-Jul-31 00:36 168 12.8
2015-Jul-31 00:26 162 0 gusting 2 12.8
2015-Jul-31 00:16 184 12.8
2015-Jul-31 00:06 184 12.2
2015-Jul-30 23:56 184 12.2
2015-Jul-30 23:46 184 12.2
2015-Jul-30 23:36 184 12.2
2015-Jul-30 23:26 188 11.7
2015-Jul-30 23:16 188 11.7
2015-Jul-30 23:06 188 11.7
2015-Jul-30 22:56 198 11.7
2015-Jul-30 22:46 198 0 gusting 2 11.7
2015-Jul-30 22:36 283 11.7
2015-Jul-30 22:26 283 12.2
2015-Jul-30 22:16 284 12.2
2015-Jul-30 22:06 284 12.2
2015-Jul-30 21:56 284 12.2
2015-Jul-30 21:46 284 12.2
2015-Jul-30 21:36 284 12.2
2015-Jul-30 21:26 284 12.2
2015-Jul-30 21:16 284 12.8
2015-Jul-30 21:06 284 12.8
2015-Jul-30 20:56 284 12.8
2015-Jul-30 20:46 284 13.3
2015-Jul-30 20:36 284 13.3
2015-Jul-30 20:26 284 13.3
2015-Jul-30 20:16 284 13.9
2015-Jul-30 20:06 314 13.9
2015-Jul-30 19:56 314 14.4
2015-Jul-30 19:46 314 15.0
2015-Jul-30 19:36 314 15.0
2015-Jul-30 19:26 314 15.6
2015-Jul-30 19:16 314 15.6
2015-Jul-30 19:06 314 15.6
2015-Jul-30 18:56 358 16.1
2015-Jul-30 18:46 159 16.1
2015-Jul-30 18:36 288 16.1
2015-Jul-30 18:26 263 16.1
2015-Jul-30 18:16 277 16.1
2015-Jul-30 18:06 292 0 gusting 2 16.1
2015-Jul-30 17:56 279 1 gusting 5 16.7
2015-Jul-30 17:46 320 0 gusting 4 16.7
2015-Jul-30 17:36 287 1 gusting 4 17.2
2015-Jul-30 17:26 198 17.2
2015-Jul-30 17:16 311 0 gusting 1 17.2
2015-Jul-30 17:06 311 17.2
2015-Jul-30 16:56 310 17.8
2015-Jul-30 16:46 313 17.8
2015-Jul-30 16:36 313 17.8
2015-Jul-30 16:26 264 0 gusting 2 18.3
2015-Jul-30 16:16 310 2 gusting 6 18.3
2015-Jul-30 16:06 322 1 gusting 5 18.3
2015-Jul-30 15:56 338 18.3
2015-Jul-30 15:46 286 18.3
2015-Jul-30 15:36 284 18.3
2015-Jul-30 15:26 284 0 gusting 2 18.3
2015-Jul-30 15:16 283 1 gusting 4 17.8
2015-Jul-30 15:06 237 1 gusting 6 17.8
2015-Jul-30 14:56 204 0 gusting 4 17.8
2015-Jul-30 14:46 310 0 gusting 6 17.2
2015-Jul-30 14:36 269 1 gusting 4 17.2
2015-Jul-30 14:26 285 16.7
2015-Jul-30 14:16 287 16.7
2015-Jul-30 14:06 287 16.7
2015-Jul-30 13:56 287 17.2
2015-Jul-30 13:46 287 17.2
2015-Jul-30 13:36 287 17.2
2015-Jul-30 13:26 287 0 gusting 2 17.8
2015-Jul-30 13:16 293 1 gusting 5 18.3
2015-Jul-30 13:06 250 1 gusting 5 18.9